This is the latest recevied weather packets stored in our database for station/object SQ9IWE-13. If no packets are shown the sender has not sent any weather packets the latest 10 day(s).
| Time | Temp. | Humidity | Pressure | Rain* | Wind** | Luminosity | Snow |
|---|---|---|---|---|---|---|---|
| 1777312801 | 11.11° C | 37% | 1020 hPa | - | - | - | - |
| 1777311601 | 12.22° C | 35% | 1020 hPa | - | - | - | - |
| 1777311001 | 12.22° C | 34% | 1019.8 hPa | - | - | - | - |
| 1777310401 | 12.22° C | 34% | 1019.9 hPa | - | - | - | - |
| 1777308601 | 13.33° C | 33% | 1019.7 hPa | - | - | - | - |
| 1777306801 | 13.89° C | 32% | 1019.8 hPa | - | - | - | - |
| 1777306201 | 13.89° C | 31% | 1019.6 hPa | - | - | - | - |
| 1777305601 | 13.89° C | 32% | 1019.8 hPa | - | - | - | - |
| 1777305001 | 14.44° C | 32% | 1019.8 hPa | - | - | - | - |
| 1777304401 | 14.44° C | 32% | 1019.8 hPa | - | - | - | - |
| 1777303801 | 15° C | 32% | 1019.9 hPa | - | - | - | - |
| 1777300801 | 15° C | 31% | 1020.1 hPa | - | - | - | - |
| 1777300201 | 15° C | 30% | 1020.3 hPa | - | - | - | - |
| 1777299601 | 15° C | 30% | 1020.3 hPa | - | - | - | - |
| 1777299001 | 15.56° C | 30% | 1020.3 hPa | - | - | - | - |
| 1777295401 | 15.56° C | 30% | 1020.8 hPa | - | - | - | - |
| 1777294801 | 16.11° C | 30% | 1021.1 hPa | - | - | - | - |
| 1777293001 | 16.11° C | 30% | 1021.3 hPa | - | - | - | - |
| 1777292401 | 16.11° C | 30% | 1021.4 hPa | - | - | - | - |
| 1777291801 | 16.11° C | 31% | 1021.4 hPa | - | - | - | - |
| 1777291201 | 16.67° C | 29% | 1021.5 hPa | - | - | - | - |
| 1777290601 | 20° C | 27% | 1021.6 hPa | - | - | - | - |
| 1777289401 | 18.89° C | 27% | 1021.6 hPa | - | - | - | - |
| 1777288201 | 18.89° C | 28% | 1021.9 hPa | - | - | - | - |
| 1777287601 | 18.33° C | 28% | 1021.9 hPa | - | - | - | - |
* Rain since midnight (hover to see other rain measurements)
** Current wind speed in m/s (hover to see current wind gust speed)